YUNHAI-2 6 (43915 NORAD) Tracking and Keplerian Element Data

This shows tracking and keplerian element data for the satellite.

Feedback or suggestion? Click here.




ElementValue
Catalog43915
NameYUNHAI-2 6
Epoch Orbit396
Epoch Day27.82177003
Epoch Year2019
RAAN76.8807
Inclination50.0122
Eccentricity0.0005157
Argument of Perigee318.4088
Mean Anonmoly41.6396
Mean Motion13.43623633
Decay Rate-1.32E-06
L11 43915U 18112G 19027.82177003 -.00000132 00000-0 -55264-5 0 9997
L22 43915 50.0122 76.8807 0005157 318.4088 41.6396 13.43623633 3961

Live tracking and technical data element details for YUNHAI-2 6 (NORAD 43915). YUNHAI-2 6 can be tracked NOW for your location showing map with azimuth and elevation plus other details from your city location.

Track the satellite on the map from your city or location and see movement details for azimuth, elevation, latitude, longitude, range, height, and movement on the map or in text.







IsCatalogInMostPopularTable: catalog: 43915, numindb: 142
Update: records affected: 1



GetName: 43915 YUNHAI-2 6

Hit Count: updated at: Tue, 16 Jul 2019 14:55:33 GMT